ImprimablePdf
Antwerpen, 17/04/2011, BEL - DVV Antwerp 10 Miles
Liste des rapports > DVV Antwerp 10 Miles - Classement + Video
Recherche: Page: [1] 2 3
460 Entrées
 
Les réclamations ne sont plus acceptées, les résultats sont considérés comme définitifs.
RangNrNomIOCEquipeTempsTkmMoy.ScrLocalité
1.13942FARNOUTS RieBEL1:06:474:09 14.46415
2.221FHAGGAR RachelBEL1:09:544:21 13.82746BERCHEM
3.525FDE POOTER ChristianeBEL1:10:044:22 13.78770GENTBRUGGE
4.1283FBLEYS AnneBEL1:10:574:25 13.61898BRUXELLES
5.12705FSCHELLENS RiaBELINTERSOC1:13:124:33 13.191283DUFFEL
6.11701FBONGAERTS PatriciaBELGEMEENTELIJK HAVENBEDRIJF1:13:134:33 13.191284ANTWERPEN 2
7.15387FHICKETICK Petra1:15:014:40 12.871668
8.6120FOOSTVOGEL EllenNLD1:15:454:43 12.751845DEN HAAG
9.11197FMICHIELS CarinaBEL1:16:454:47 12.582102KAPELLEN (ANTW.
10.13163FLANDTMETERS LailaBEL1:17:064:48 12.532204EDEGEM
11.14681FKLEINJANS SabineBEL1:18:314:53 12.302585
12.4895FNOLLET AnnBELFEBELCO1:19:134:56 12.192770BRUGGE
13.8712FVANDERSTUYF IsabelleBELPSA ANTWERP NV1:20:014:59 12.073027BEVEREN-WAAS
14.10310FSCHOOVAERTS KarinBELCD&V - RUN1:20:124:59 12.043091PUTTE
15.9829FKOYEN LucienneBEL1:20:455:01 11.963274RIJKEVORSEL
16.10468FCAMBRON VeraBEL1:21:025:03 11.923374ANTWERPEN 1
17.9538FALAERTS JennyBEL1:21:165:03 11.883442AARSCHOT
18.7155FFRANCOIS AnnBEL1:21:455:05 11.813590WETTEREN
19.1614FDERKS BrigitteBEL1:21:455:05 11.813592LIER
20.19228FVAN DE VOORDE AnnickBEL1:22:045:06 11.773682
21.8573FRAES GretaBEL1:22:105:07 11.753710ANTWERPEN 5
22.3439FNORGA AnitaBELFRESENIUS KABI NV1:22:495:09 11.663927VORSELAAR
23.9824FGHEKIERE HildeBEL1:23:135:11 11.604057IZEGEM
24.12998FPEETERS SylvieBEL1:23:165:11 11.604076SCHOTEN
25.10299FMEEUSSEN NadineBELCD&V - RUN1:23:195:11 11.594097BROECHEM
26.18307FAUDENAERT MarleenBEL1:23:295:12 11.574167
27.1863FRAEYMAEKERS ChantalBEL1:23:375:12 11.554204HOLSBEEK
28.10352FOTT ChristelBELAZ NIKOLAAS1:23:465:13 11.534255STEKENE
29.9102FVAN ROSENDAAL ElsBEL1:23:565:13 11.514324EKEREN (ANTWERP
30.18350FDE COSTER HadewychBEL1:24:085:14 11.484394
31.13848FDULLAERT AnnemieBEL1:24:305:15 11.434528
32.14819FJANSSEN Linda1:24:305:15 11.434529
33.18902FVANCAYZEELE BrigitteBEL1:24:385:16 11.414565
34.1787FDELANGHE ElsBEL1:24:415:16 11.404586SCHOTEN
35.18610FDE MARE TruiBEL1:24:435:16 11.404591
36.692FVANDENBULCKE NausikaaBEL1:24:485:17 11.394625MIKKELI
37.13793FVERHOEVEN HelenaBELTOTAL1:24:505:17 11.394632
38.8310FREPRIELS RienBELAVERY DENNISON1:24:575:17 11.374674KASTERLEE
39.9453FVAN ERWEGEN KristinBEL1:25:075:18 11.354749BEERSE
40.6656FDE BECKER JetBEL1:25:325:19 11.294895BOUTERSEM
41.1683FSTEUNENBERG KarinNLD1:25:505:20 11.254984VLISSINGEN
42.105FBULINCKX ChristineBEL1:25:515:21 11.254986SCHAGEN
43.3188FGEYSEN ElsBEL1:25:515:21 11.254995BRECHT
44.13946FDENDOOVEN ElsBEL1:26:015:21 11.235058
45.13783FVANDERSTRAETEN SuzyBELTOTAL1:26:025:21 11.235059
46.5240FLESAFFER CaiBEL1:26:025:21 11.235063BAARLE-HERTOG
47.12245FVAN TENDELOO CarineBELPROVINCIE ANTWERPEN1:26:175:22 11.195158WOMMELGEM
48.5035FBARTELEN MiaBELFEBELCO1:26:245:23 11.185211BURCHT
49.5389FBAUWENS GretaBEL1:26:295:23 11.175241LOKEREN
50.2396FVANHONSEBROUCK DominiqueBEL1:26:305:23 11.175242WILRIJK
51.6712FADRIAENSEN FrieBEL1:26:525:24 11.125373HOOGSTRATEN-MEE
52.13072FHADERMANN MarijkeBEL1:27:085:25 11.085471GROBBENDONK
53.5418FMAES KarinBELLYRECO1:27:155:26 11.075524GIERLE
54.15474FFOSTER Ruth1:27:165:26 11.075528
55.12351FCORNETTE CatherineBELLESSIUS1:27:235:26 11.055577MERKSEM (ANTWER
56.12233FREBAHI MyriamBELPROVINCIE ANTWERPEN1:27:315:27 11.045636SCHAARBEEK
57.10169FVAN DAMME PiaBELSD WORX1:27:335:27 11.035644HOBOKEN
58.4107FVAN BRUGGEN TimNLD1:27:435:27 11.015715EDAM
59.3418FVAN HECKE TinnekenBEL1:28:025:29 10.975846KAPELLEN (ANTW.
60.18941FSOMERS IngridBEL1:28:125:29 10.955915
61.1976FMCKELVEY SiobhanBEL1:28:145:29 10.955931BRUSSELS
62.12480FLONEUX CatherineBEL1:28:285:30 10.926011KONTICH
63.6376FALLARD RitaBEL1:28:475:31 10.886143DENDERHOUTEM
64.18708FPAUWELS MoniqueBEL1:28:565:32 10.866212
65.12669FJACOBS GreetBELINTERSOC1:29:155:33 10.826348WUUSTWEZEL
66.8204FCLIJMANS MiaBEL1:29:185:33 10.816371VOSSELAAR
67.5324FBRUGGEMAN Anne MieBEL1:29:295:34 10.796446ANTWERPEN
68.9840FVANDERBYSE Anne-CecileBEL1:29:335:34 10.796472BRUXELLES
69.6731FDE COCK InesBEL1:29:365:34 10.786493ANTWERPEN
70.12465FERKEN NancyBEL1:29:375:35 10.786508RANST
71.12952FDONCKERS IngeBEL1:29:505:35 10.756598BEERSE
72.19296FVAN WINKEL IngridBEL1:30:005:36 10.736657DUFFEL
73.18506FVAN HERTBRUGGEN IlseBEL1:30:045:36 10.726683
74.2214FWENS MiekeBEL1:30:165:37 10.706747KIELDRECHT
75.12354FCAUWELS AnnickBELINTERSOC1:30:165:37 10.706748ZOMERGEM
76.12469FGOOSSENS ChristineBEL1:30:315:38 10.676827MECHELEN
77.13567FCOURCELLES ThereseBELSEAT1:30:345:38 10.666845
78.1440FBENOEY ChristelBEL1:30:435:39 10.656915HOBOKEN (ANTWER
79.2885FJAENEN CarineBEL1:30:565:39 10.627018HOUTHALEN
80.3987FHAZEWINKEL MiekeBEL1:30:575:40 10.627023HOBOKEN
81.12462FDEVENYNS HildeBEL1:31:055:40 10.607071WILLEBROEK
82.14566FBULTHE KathleenBEL1:31:155:41 10.587134SINT-GILLIS-WAA
83.12388FDE WEVER KathleenBELINTERSOC1:31:215:41 10.577177VEERLE
84.13165FLAUWENS SuzanneBEL1:31:215:41 10.577179EDEGEM
85.12330FSANCZUK VeroniqueBELLESSIUS1:31:265:41 10.567211WAARBEKE
86.5218FDE SAEGER KristineBEL1:31:285:41 10.567225BUGGENHOUT
87.2283FHERBOTS AnnBEL1:31:305:42 10.567233MACHELEN (BT)
88.4901FLANCKRIET LindaBELFEBELCO1:31:315:42 10.557239SINT-ANDRIES
89.5803FDE BRUYNE KatiaBEL1:31:395:42 10.547293IMPE
90.11233FJACQUEMART HildeBEL1:31:425:42 10.537316BERCHEM (ANTWER
91.18406FVERBRAEKEN ElsBEL1:31:495:43 10.527349
92.5055FPATTERT MachteldBELFEBELCO1:31:505:43 10.527354EKEREN (ANTWERP
93.16786FMCKENNA Geraldine1:31:505:43 10.527355
94.11252FLOOSE AnnemieBEL1:31:565:43 10.507396BERCHEM (ANTWER
95.4697FVERWERFT NicoleBEL1:31:575:43 10.507407NIJLEN
96.7649FLAMMENS KatrijnBELALCON1:32:005:43 10.507429TEMSE
97.10300FEECHAUTE AnnemieBELCD&V - RUN1:32:005:43 10.507431NAZARETH
98.5074FLAUWERS AnneleenBELFEBELCO1:32:005:43 10.507433SCHELLE
99.5638FMARIN MoniqueBEL1:32:065:44 10.497470DEURNE (ANTWERP
100.2527FLANGE JannaBEL1:32:065:44 10.497474HASSELT
101.6808FVANDEKEYBUS HildeBELGZA1:32:125:44 10.477507ESSEN
102.9472FUYTTERHOEVEN KarinBEL1:32:145:44 10.477527PUTTE
103.7279FLEDENE JennyBEL1:32:165:44 10.477538LUBBEEK
104.12001FVAN GERWEN MarjanNLD1:32:215:45 10.467574ROTTERDAM
105.9460FDEBACKER KarinBEL1:32:215:45 10.467577BRASSCHAAT
106.7360FMEERSMAN HildeBEL1:32:225:45 10.467583TEMSE
107.683FLAUWERS GrietBEL1:32:275:45 10.457611BRUXELLES
108.12716FSMETS SabineBELINTERSOC1:32:295:45 10.447617SINT-TRUIDEN
109.10252FVAN OVERLOOP AnBELREVALIDATIEZIEKENHUIS HOF1:32:325:45 10.447635EDEGEM
110.1651FSUY KatleenBEL1:32:335:45 10.447648BEVEREN-WAAS
111.4025FVANGEEL LydieBEL1:32:375:46 10.437673LAAKDAL
112.9969FSEYS MarleenBELBELGACOM1:32:385:46 10.437677ASSEBROEK
113.12947FDE WEVER DanielleBEL1:32:405:46 10.427694DEURNE (ANTWERP
114.3744FDIERCKX PascaleBEL1:32:415:46 10.427697OELEGEM
115.12837FTHIJS MoniqueBEL1:32:435:46 10.427707MERKSEM
116.13182FPELGRIMS CathyBEL1:32:495:47 10.407748BOECHOUT
117.5573FTORRELLE CatherineARG1:32:495:47 10.407750WIJNEGEM
118.13714FMONDEN MarjanBELTOTAL1:32:515:47 10.407764
119.5087FWAUTERS NancyBELFEBELCO1:32:535:47 10.407770BERCHEM (ANTWER
120.17000FGIJSELS IngeBEL1:32:565:47 10.397781BORSBEKE
121.6147FVAN DEN LANGENBERGH AnnBEL1:33:005:47 10.387808ZOERSEL
122.8778FHELLEMANS CarineBEL1:33:015:47 10.387815EDEGEM
123.654FVAN HUNSEL IlseBEL1:33:025:47 10.387825LONGCHAMPS (LUX
124.4909FSTROEF AnnBELFEBELCO1:33:035:47 10.387829BRUGGE
125.9470FJACOBS LutBEL1:33:095:48 10.377878BUGGENHOUT
126.6069FVERBIST DanielleBEL1:33:115:48 10.367885MORTSEL
127.5000FVAN KERKHOVEN IlseBELFEBELCO1:33:135:48 10.367897HERENTALS
128.12055FCHRISTIAENS CecileBEL1:33:155:48 10.367912HALLE
129.4843FROGGEMAN KarineBEL1:33:185:48 10.357934ZELE
130.9198FVAN DOORSLAER DianeBEL1:33:245:49 10.347975BRASSCHAAT
131.11651FBRUYERE SandraBEL1:33:335:49 10.328037MORTSEL
132.4414FLAARAJ YaminaBEL1:33:425:50 10.318105WEZEMBEEK-OPPEM
133.4176FJANSEN MeriNLD1:33:525:50 10.298169ALPHEN-CHAAM
134.18656FVAN DER RELEN HildeBEL1:33:555:51 10.288184
135.19260FGORIS JoseeBEL1:34:075:51 10.268253
136.14540FVERTONGEN RenataBELKUEHNE + NAGEL1:34:105:51 10.268261MEISE
137.12470FHERMANS HildegardBEL1:34:135:52 10.258286ARENDONK
138.8574FSCHACHT NancyBEL1:34:165:52 10.258303BEVEREN-WAAS
139.18371FJENNE DianeBEL1:34:165:52 10.248310
140.4944FDOSSCHE KatrienBELFEBELCO1:34:275:53 10.228385SINT-MARTENS-LA
141.12575FGEENS ElsBELUMICORE1:34:345:53 10.218419LAAKDAL
142.9887FMEERSSEMAN KarolienBEL1:34:385:53 10.218446BESELARE
143.15340FDIRVEN Annemie1:34:425:54 10.208475
144.5846FSLUIMER MargreetNLD1:34:465:54 10.198487LEIDEN
145.4203FVANDENPLAS DianeBEL1:34:555:54 10.178538OVERIJSE
146.18465FVANDENBROECKE GrethelBEL1:35:075:55 10.158608
147.13175FMEYSKENS VeraBEL1:35:095:55 10.158621SCHOTEN
148.18492FPHILIPS BarbaraBEL1:35:125:55 10.148646
149.9047FEMBREGTS KatrienBEL1:35:195:56 10.138686SCHELLE
150.18545FWEGGE SabinaBEL1:35:425:57 10.098838
151.18429FLAMBRECHTS VivianeBEL1:35:445:57 10.098851
152.18430FDE VOCHT NicoleBEL1:35:445:57 10.098853
153.10661FVOLLENHOUW ReginaNLD1:35:455:57 10.098859NIEUWERKERK AAN
154.8894FSEENS CatherineBEL1:35:515:58 10.088888HOVE
155.9775FPINXTEN MarjelBEL1:35:555:58 10.078903PEER
156.10783FMOYSON HeidiBEL1:35:585:58 10.068919OUD-TURNHOUT
157.3441FVAN DEN BROECK AnnBELFRESENIUS KABI NV1:36:005:58 10.068925OOSTERZELE
158.7836FSCHEPERS HildeBEL1:36:045:59 10.058944MORTSEL
159.9787FCEYSSENS LutBEL1:36:095:59 10.048981PEER
160.5326FVAN WELT TheaBEL1:36:125:59 10.049004MAASMECHELEN
161.9767FHUYERS GiseleBEL1:36:135:59 10.049007PEER
162.11397FSCHELLENS CatharinaBEL1:36:165:59 10.039031BORGERHOUT (ANT
163.759FWILLEMS ChristineBEL1:36:256:00 10.029079BOECHOUT
164.19428FHERMANS VeerleBEL1:36:396:01 9.999163
165.13309FMARTENS SylvieBEL1:36:406:01 9.999171MEEUWEN
166.13982FJOPPEN BeaBEL1:36:406:01 9.999172
167.13308FVANBUEL LindaBEL1:36:426:01 9.999180MEEUWEN-GRUITRO
168.10602FDE HAAN CarlaNLD1:36:436:01 9.999187SLEEUWIJK
169.6241FVAN GUCHT ElsBEL1:36:466:01 9.989201BAASRODE
170.14266FVAN OVERVELT ChantalBEL1:36:516:02 9.979215
171.12719FSTES GrietBELINTERSOC1:36:516:02 9.979220WUUSTWEZEL
172.1331FBILLIAU PascaleBEL1:36:586:02 9.969256WESTMALLE
173.5024FVAN BOVEN ChristelBELFEBELCO1:36:596:02 9.969263SINT-NIKLAAS
174.7616FHERREMANS KatrienBELVINCOTTE1:37:006:02 9.969270HAMME
175.1777FGARMYN SigridBEL1:37:096:03 9.949320'S GRAVENWEZEL
176.13663FFLOREN LieveBELTOTAL1:37:096:03 9.949321
177.19213FVOETS StinneBEL1:37:156:03 9.939358
178.12747FVAN HOECK KarineBELINTERSOC1:37:156:03 9.939363RAVELS
179.16905FBEL Linda1:37:236:03 9.929410
180.19230FRAEYMAKERS SabineBEL1:37:366:04 9.899484
181.12478FLESAGE KatrienBEL1:37:426:05 9.899512KONTICH
182.14194FFIRENS Lutgarde1:37:446:05 9.889524
183.5635FVERVAEKE MarijkeBEL1:37:516:05 9.879567VICHTE
184.4399FBEECKMANS ManuelaBEL1:37:566:06 9.869592MORTSEL
185.4508FSPEEKENBRINK TopyNLD1:37:586:06 9.869605BERGEN OP ZOOM
186.3859FSTEENSELS HildeBEL1:37:586:06 9.869612HALEN
187.9544FVANMARCKE GwenBEL1:38:026:06 9.859630BRUGGE
188.13831FVAN BOCKSTAAL AnnBEL1:38:116:06 9.849688
189.6805FVAN DEN BOSCH MachteldBELGZA1:38:136:07 9.839698LINT
190.5941FCALLENS SabineBEL1:38:136:07 9.839700BERCHEM
191.12252FMINNEN HildeBELPROVINCIE ANTWERPEN1:38:246:07 9.829761DESSEL
192.8503FVAN PRAET PascaleBEL1:38:306:08 9.819797BRUSSEL
193.15607FMEULEMANS Sigrid1:38:346:08 9.809815
194.12216FSAPION AnicqBELROYAL ESSO CLUB VZW1:38:426:08 9.799856STERREBEEK
195.7835FFAES ElsBEL1:38:476:09 9.789879VOSSELAAR
196.14729FVERLINDEN IlseBEL1:38:496:09 9.779895
197.15877FFRANSEN Greet1:38:546:09 9.779924
DNF: abandon; DSQ: disqualifié; Vitesse en km/h
ChronoRace - Electronic Timing - www.chronorace.be